Location: Newark
(48.0000°N, 67.0000°E)
Time: 06:07:36
(UTC+00:00)

Vanguard 2 - Pass Details

Date: 19 February 2020
Orbit: 552 x 2938 km, 32.9° (Epoch: 07 April)

Event Time Altitude Azimuth Distance (km) Brightness Sun altitude
Exits shadow 22:03:58 28° 147° (SSE) 3,525 10.7 -43.3°
Drops below altitude 10° 22:16:02 10° 98° (E) 5,510 12.2 -41.7°
Sets 22:21:38 0° 89° (E) 6,713 12.9 -40.9°
